Regional Weather Roundup
Issued by NWS

Home | Current Version | Previous Version | Graphics & Text | Print | Product List | Glossary On
Versions: 1 2 3 4 5 6 7 8 9 10 11 12 13 14 15 16 17 18 19 20 21 22 23 24 25 26 27 28 29 30 31 32 33 34 35 36 37 38 39 40 41 42 43 44 45 46 47 48 49 50
000
ASUS43 KFSD 141810
RWRSD

WEATHER ROUNDUP FOR SOUTH DAKOTA
NATIONAL WEATHER SERVICE SIOUX FALLS SD
100 PM CDT SUN SEP 14 2014

NOTE: "FAIR" INDICATES FEW OR NO CLOUDS BELOW 12,000 FEET WITH NO
SIGNIFICANT WEATHER AND/OR OBSTRUCTIONS TO VISIBILITY.


SDZ001>005-009-010-012>017-141900-
NORTHWEST AND NORTH CENTRAL SOUTH DAKOTA

CITY           SKY/WX    TMP DP  RH WIND       PRES   REMARKS
BUFFALO          N/A     56  33  42 E8G17     30.09F
FAITH            N/A     53  39  59 E7        30.17F
MOBRIDGE       CLOUDY    52  41  66 NW6       30.17S
$$

SDZ012>016-024>037-041>051-057-063-072>074-141900-
SOUTHWEST AND SOUTH CENTRAL SOUTH DAKOTA

CITY           SKY/WX    TMP DP  RH WIND       PRES   REMARKS
RAPID CTY ARPT CLOUDY    50  36  58 SE8       30.15F
PIERRE         CLOUDY    55  39  54 NE6       30.17F
CUSTER         CLOUDY    44  35  70 E9        30.12F
ELLSWORTH AFB  CLOUDY    51  37  59 SE7       30.15F
PHILIP         CLOUDY    53  38  56 E10       30.17F
PINE RIDGE     CLOUDY    56  41  57 E12       30.11F
WINNER         FAIR      59  41  51 E7        30.15F
$$

SDZ004>011-016>023-039-040-141900-
NORTHEAST SOUTH DAKOTA

CITY           SKY/WX    TMP DP  RH WIND       PRES   REMARKS
ABERDEEN       CLOUDY    55  42  61 NW7       30.17F
WATERTOWN      CLOUDY    54  38  54 W10       30.16S
SISSETON         N/A     57  41  55 NW10      30.14F
$$

SDZ017-020-022-023-036>040-048>070-141900-
SOUTHEAST SOUTH DAKOTA

CITY           SKY/WX    TMP DP  RH WIND       PRES   REMARKS
SIOUX FALLS    PTSUNNY   63  41  44 CALM      30.17F
HURON          CLOUDY    57  39  51 N5        30.18S
CHAMBERLAIN    CLOUDY    55  41  59 NE3       30.17F
MITCHELL       CLOUDY    61  42  49 VRB3      30.18F
YANKTON        MOSUNNY   61  43  51 E7        30.16F
$$

ABBREVIATIONS USED IN REMARKS
   TC - TEMPERATURE IN CELSIUS
  WCI - WIND CHILL INDEX
   HX - HEAT INDEX
  VSB - VISIBILITY




USA.gov is the U.S. government's official web portal to all federal, state and local government web resources and services.